<?xml version="1.0" encoding="UTF-8" standalone="no" ?>
<gpx xmlns="http://www.topografix.com/GPX/1/1" xmlns:xsi="http://www.w3.org/2001/XMLSchema-instance" xsi:schemaLocation="http://www.topografix.com/GPX/1/1 http://www.topografix.com/GPX/1/1/gpx.xsd" version="1.1" creator="VisuGPX - https://www.visugpx.com">
  <metadata>
    <name>Forêt de Marly M 13</name>
    <desc><![CDATA[forêt de marly]]></desc>
  </metadata>
  <trk>
    <name><![CDATA[M 13 Foret de Marly]]></name>
    <trkseg>
      <trkpt lat="48.85511" lon="2.07382">
        <ele>175.9</ele>
        <time>2004-01-15T23:08:58Z</time>
      </trkpt>
      <trkpt lat="48.85937" lon="2.07032">
        <ele>138.7</ele>
        <time>2004-01-15T23:08:58Z</time>
      </trkpt>
      <trkpt lat="48.86089" lon="2.06684">
        <ele>125.6</ele>
        <time>2004-01-15T23:08:58Z</time>
      </trkpt>
      <trkpt lat="48.86094" lon="2.05945">
        <ele>140.4</ele>
        <time>2004-01-15T23:08:58Z</time>
      </trkpt>
      <trkpt lat="48.86105" lon="2.05938">
        <ele>139</ele>
        <time>2004-01-15T23:08:58Z</time>
      </trkpt>
      <trkpt lat="48.86094" lon="2.04961">
        <ele>152.5</ele>
        <time>2004-01-15T23:08:58Z</time>
      </trkpt>
      <trkpt lat="48.86315" lon="2.05069">
        <ele>134</ele>
        <time>2004-01-15T23:08:58Z</time>
      </trkpt>
      <trkpt lat="48.86326" lon="2.05055">
        <ele>134.1</ele>
        <time>2004-01-15T23:08:58Z</time>
      </trkpt>
      <trkpt lat="48.86503" lon="2.04989">
        <ele>138.1</ele>
        <time>2004-01-15T23:08:58Z</time>
      </trkpt>
      <trkpt lat="48.86638" lon="2.0493">
        <ele>142.6</ele>
        <time>2004-01-15T23:08:58Z</time>
      </trkpt>
      <trkpt lat="48.86824" lon="2.04933">
        <ele>126</ele>
        <time>2004-01-15T23:08:58Z</time>
      </trkpt>
      <trkpt lat="48.86966" lon="2.05044">
        <ele>122.3</ele>
        <time>2004-01-15T23:08:58Z</time>
      </trkpt>
      <trkpt lat="48.87049" lon="2.05041">
        <ele>128.6</ele>
        <time>2004-01-15T23:08:58Z</time>
      </trkpt>
      <trkpt lat="48.87078" lon="2.05047">
        <ele>130.2</ele>
        <time>2004-01-15T23:08:58Z</time>
      </trkpt>
      <trkpt lat="48.87154" lon="2.05428">
        <ele>125.4</ele>
        <time>2004-01-15T23:08:58Z</time>
      </trkpt>
      <trkpt lat="48.87205" lon="2.0535">
        <ele>134.2</ele>
        <time>2004-01-15T23:08:58Z</time>
      </trkpt>
      <trkpt lat="48.87247" lon="2.05206">
        <ele>155.3</ele>
        <time>2004-01-15T23:08:58Z</time>
      </trkpt>
      <trkpt lat="48.87254" lon="2.05206">
        <ele>156.5</ele>
        <time>2004-01-15T23:08:58Z</time>
      </trkpt>
      <trkpt lat="48.87369" lon="2.05182">
        <ele>171.3</ele>
        <time>2004-01-15T23:08:58Z</time>
      </trkpt>
      <trkpt lat="48.87419" lon="2.05573">
        <ele>170.1</ele>
        <time>2004-01-15T23:08:58Z</time>
      </trkpt>
      <trkpt lat="48.87522" lon="2.05573">
        <ele>171</ele>
        <time>2004-01-15T23:08:58Z</time>
      </trkpt>
      <trkpt lat="48.87545" lon="2.05545">
        <ele>171.1</ele>
        <time>2004-01-15T23:08:58Z</time>
      </trkpt>
      <trkpt lat="48.87415" lon="2.04896">
        <ele>174.8</ele>
        <time>2004-01-15T23:08:58Z</time>
      </trkpt>
      <trkpt lat="48.8766" lon="2.04118">
        <ele>173</ele>
        <time>2004-01-15T23:08:58Z</time>
      </trkpt>
      <trkpt lat="48.87005" lon="2.04281">
        <ele>164.1</ele>
        <time>2004-01-15T23:08:58Z</time>
      </trkpt>
      <trkpt lat="48.86996" lon="2.04278">
        <ele>164.7</ele>
        <time>2004-01-15T23:08:58Z</time>
      </trkpt>
      <trkpt lat="48.86993" lon="2.04237">
        <ele>169.8</ele>
        <time>2004-01-15T23:08:58Z</time>
      </trkpt>
      <trkpt lat="48.86996" lon="2.04227">
        <ele>170.6</ele>
        <time>2004-01-15T23:08:58Z</time>
      </trkpt>
      <trkpt lat="48.86998" lon="2.04097">
        <ele>175.1</ele>
        <time>2004-01-15T23:08:58Z</time>
      </trkpt>
      <trkpt lat="48.86979" lon="2.04002">
        <ele>175.3</ele>
        <time>2004-01-15T23:08:58Z</time>
      </trkpt>
      <trkpt lat="48.869" lon="2.03917">
        <ele>169.9</ele>
        <time>2004-01-15T23:08:58Z</time>
      </trkpt>
      <trkpt lat="48.8671" lon="2.04085">
        <ele>174.4</ele>
        <time>2004-01-15T23:08:58Z</time>
      </trkpt>
      <trkpt lat="48.86712" lon="2.04092">
        <ele>174</ele>
        <time>2004-01-15T23:08:58Z</time>
      </trkpt>
      <trkpt lat="48.86309" lon="2.04585">
        <ele>175</ele>
        <time>2004-01-15T23:08:58Z</time>
      </trkpt>
      <trkpt lat="48.86239" lon="2.04609">
        <ele>175</ele>
        <time>2004-01-15T23:08:58Z</time>
      </trkpt>
      <trkpt lat="48.86183" lon="2.04661">
        <ele>173.6</ele>
        <time>2004-01-15T23:08:58Z</time>
      </trkpt>
      <trkpt lat="48.861" lon="2.04753">
        <ele>171.6</ele>
        <time>2004-01-15T23:08:58Z</time>
      </trkpt>
      <trkpt lat="48.86065" lon="2.04825">
        <ele>170.4</ele>
        <time>2004-01-15T23:08:58Z</time>
      </trkpt>
      <trkpt lat="48.85991" lon="2.04972">
        <ele>172.3</ele>
        <time>2004-01-15T23:08:58Z</time>
      </trkpt>
      <trkpt lat="48.85953" lon="2.05091">
        <ele>170.2</ele>
        <time>2004-01-15T23:08:58Z</time>
      </trkpt>
      <trkpt lat="48.85929" lon="2.05255">
        <ele>170.5</ele>
        <time>2004-01-15T23:08:58Z</time>
      </trkpt>
      <trkpt lat="48.85938" lon="2.05312">
        <ele>167.7</ele>
        <time>2004-01-15T23:08:58Z</time>
      </trkpt>
      <trkpt lat="48.85842" lon="2.05895">
        <ele>151.2</ele>
        <time>2004-01-15T23:08:58Z</time>
      </trkpt>
      <trkpt lat="48.85847" lon="2.05885">
        <ele>151.9</ele>
        <time>2004-01-15T23:08:58Z</time>
      </trkpt>
      <trkpt lat="48.85772" lon="2.06318">
        <ele>156.9</ele>
        <time>2004-01-15T23:08:58Z</time>
      </trkpt>
      <trkpt lat="48.85725" lon="2.06529">
        <ele>170.6</ele>
        <time>2004-01-15T23:08:58Z</time>
      </trkpt>
      <trkpt lat="48.85712" lon="2.06659">
        <ele>170.8</ele>
        <time>2004-01-15T23:08:58Z</time>
      </trkpt>
      <trkpt lat="48.85713" lon="2.0703">
        <ele>168.1</ele>
        <time>2004-01-15T23:08:58Z</time>
      </trkpt>
      <trkpt lat="48.85672" lon="2.07214">
        <ele>160.6</ele>
        <time>2004-01-15T23:08:58Z</time>
      </trkpt>
      <trkpt lat="48.85511" lon="2.0732">
        <ele>173.7</ele>
        <time>2004-01-15T23:08:58Z</time>
      </trkpt>
      <trkpt lat="48.85513" lon="2.07378">
        <ele>175.7</ele>
        <time>2004-01-15T23:08:58Z</time>
      </trkpt>
    </trkseg>
  </trk>
</gpx>